Location: Crescent
(42.8242°N, 73.7329°W)
Time: 05:18:48
(UTC+00:00)

Vanguard 2 Rocket - Pass Details

Date: 15 February 2026
Orbit: 553 x 3286 km, 32.9° (Epoch: 13 March)

Event Time Altitude Azimuth Distance (km) Brightness Sun altitude
Rises 00:26:29 0° 269° (W) 4,633 12.0 -22.8°
Reaches altitude 10° 00:32:26 10° 242° (WSW) 2,968 10.3 -23.9°
Maximum altitude 00:34:44 12° 222° (SW) 2,587 9.7 -24.3°
Drops below altitude 10° 00:36:45 10° 202° (SSW) 2,502 9.3 -24.6°
Enters shadow 00:39:24 - 177° (S) 2,798 9.3 -25.1°
Sets 00:40:37 0° 168° (SSE) 3,063 - -25.3°
